Hilton Head Island, SC

6:03 PM EST on January 18, 2017 (GMT -0500)
Hilton Head

Weather History for KHXD - March, 2012

Change the Weather History Date:

Wednesday, March 28, 2012

  Actual Average Record
Temperature  
Mean Temperature 69 °F -  
Max Temperature 78 °F 71 °F 82 °F (2016)
Min Temperature 60 °F 51 °F 32 °F (1969)
Cooling Degree Days 4    
Growing Degree Days 19 (Base 50)    
Moisture  
Dew Point 62 °F    
Average Humidity 84    
Maximum Humidity 100    
Minimum Humidity 61    
Precipitation  
Precipitation 0.00 in - - ()
Sea Level Pressure  
Sea Level Pressure 30.17 in    
Wind  
Wind Speed 6 mph (SE)    
Max Wind Speed 12 mph    
Max Gust Speed 17 mph    
Visibility 9 miles    
Events      
Averages and records for this station are not official NWS values.
T = Trace of Precipitation, MM = Missing Value Source: NWS Daily Summary

Daily Weather History Graph

Daily Weather History Graph

Search for Another Location

Airport or City:

Trip Planner

Search our weather history database for the weather conditions in past years. The results will help you decide how hot, cold, wet, or windy it might be!

Date:

Astronomy

Mar. 28, 2012 Rise Set
Actual Time 7:15 AM EDT 7:40 PM EDT
Civil Twilight 6:51 AM EDT 8:04 PM EDT
Nautical Twilight 6:22 AM EDT 8:33 PM EDT
Astronomical Twilight 5:53 AM EDT 9:02 PM EDT
Moon 10:49 AM EDT (3/28) 12:23 AM EDT (3/28)
Length of Visible Light 13h 13m
Length of Day
12h 24m
Waxing Crescent, 30% of the Moon is Illuminated
Mar 28
Waxing Crescent
Mar 30
First Quarter
Apr 6
Full
Apr 13
Last Quarter
Apr 21
New

Hourly Weather History & Observations

Time (EDT) Temp. Dew Point Humidity Pressure Visibility Wind Dir Wind Speed Gust Speed Precip Events Conditions
12:15 AM 62.6 °F 57.2 °F 82% 30.27 in 10.0 mi East 8.1 mph - 0.00 in   Clear
12:35 AM 62.6 °F 57.2 °F 82% 30.27 in 10.0 mi East 6.9 mph - 0.00 in   Clear
12:55 AM 64.4 °F 57.2 °F 77% 30.27 in 10.0 mi East 5.8 mph - 0.00 in   Scattered Clouds
1:15 AM 64.4 °F 59.0 °F 83% 30.26 in 10.0 mi East 5.8 mph - 0.00 in   Mostly Cloudy
1:35 AM 64.4 °F 59.0 °F 83% 30.25 in 10.0 mi East 5.8 mph - 0.00 in   Mostly Cloudy
1:55 AM 64.4 °F 59.0 °F 83% 30.25 in 10.0 mi East 6.9 mph - 0.00 in   Mostly Cloudy
2:15 AM 64.4 °F 60.8 °F 88% 30.24 in 10.0 mi East 5.8 mph - 0.00 in   Mostly Cloudy
2:35 AM 64.4 °F 60.8 °F 88% 30.23 in 10.0 mi East 6.9 mph - 0.00 in   Mostly Cloudy
2:55 AM 64.4 °F 60.8 °F 88% 30.22 in 10.0 mi East 4.6 mph - 0.00 in   Mostly Cloudy
3:15 AM 64.4 °F 60.8 °F 88% 30.22 in 10.0 mi East 3.5 mph - 0.00 in   Mostly Cloudy
3:35 AM 64.4 °F 60.8 °F 88% 30.21 in 10.0 mi East 3.5 mph - 0.00 in   Scattered Clouds
3:55 AM 64.4 °F 62.6 °F 94% 30.20 in 10.0 mi East 3.5 mph - 0.00 in   Partly Cloudy
4:15 AM 64.4 °F 62.6 °F 94% 30.20 in 10.0 mi East 3.5 mph - 0.00 in   Clear
4:35 AM 64.4 °F 62.6 °F 94% 30.20 in 9.0 mi ESE 3.5 mph - 0.00 in   Clear
4:55 AM 62.6 °F 62.6 °F 100% 30.20 in 8.0 mi East 3.5 mph - 0.00 in   Clear
5:15 AM 62.6 °F 62.6 °F 100% 30.20 in 6.0 mi Calm Calm - 0.00 in   Clear
5:35 AM 60.8 °F 60.8 °F 100% 30.20 in 7.0 mi Calm Calm - 0.00 in   Clear
5:55 AM 60.8 °F 60.8 °F 100% 30.20 in 6.0 mi Calm Calm - 0.00 in   Clear
6:15 AM 60.8 °F 60.8 °F 100% 30.20 in 2.0 mi Calm Calm - 0.00 in   Clear
6:35 AM 60.8 °F 60.8 °F 100% 30.20 in 5.0 mi Calm Calm - 0.00 in   Clear
6:50 AM 60.8 °F 60.8 °F 100% 30.19 in 5.0 mi Calm Calm - N/A   Clear
7:50 AM 66.2 °F 64.4 °F 94% 30.20 in 6.0 mi Calm Calm - N/A   Clear
8:50 AM 68.0 °F 64.4 °F 88% 30.24 in 10.0 mi Calm Calm - N/A   Clear
10:50 AM 73.4 °F 62.6 °F 69% 30.23 in 10.0 mi South 8.1 mph - N/A   Clear
11:50 AM 73.4 °F 62.6 °F 69% 30.22 in 10.0 mi South 3.5 mph - N/A   Clear
12:50 PM 75.2 °F 64.4 °F 69% 30.19 in 10.0 mi South 6.9 mph - N/A   Scattered Clouds
1:50 PM 77.0 °F 66.2 °F 69% 30.16 in 10.0 mi South 6.9 mph - N/A   Clear
2:50 PM 78.8 °F 64.4 °F 61% 30.14 in 10.0 mi South 11.5 mph 16.1 mph N/A   Partly Cloudy
3:50 PM 77.0 °F 64.4 °F 65% 30.11 in 10.0 mi South 10.4 mph - N/A   Partly Cloudy
4:50 PM 78.8 °F 64.4 °F 61% 30.09 in 10.0 mi SSW 11.5 mph 17.3 mph N/A   Clear
5:50 PM 75.2 °F 64.4 °F 69% 30.07 in 10.0 mi SSW 10.4 mph 16.1 mph N/A   Clear
6:50 PM 73.4 °F 62.6 °F 69% 30.06 in 10.0 mi SSW 8.1 mph 16.1 mph N/A   Clear
9:15 PM 69.8 °F 64.4 °F 83% 30.06 in 10.0 mi SSW 11.5 mph 17.3 mph 0.00 in   Clear
9:35 PM 69.8 °F 66.2 °F 88% 30.06 in 10.0 mi SSW 8.1 mph - 0.00 in   Clear
9:55 PM 69.8 °F 66.2 °F 88% 30.07 in 10.0 mi SSW 9.2 mph 16.1 mph 0.00 in   Clear
10:15 PM 69.8 °F 64.4 °F 83% 30.07 in 10.0 mi SSW 8.1 mph 16.1 mph 0.00 in   Clear
10:55 PM 69.8 °F 64.4 °F 83% 30.07 in 10.0 mi SSW 8.1 mph - 0.00 in   Clear
11:15 PM 69.8 °F 64.4 °F 83% 30.07 in 10.0 mi SSW 6.9 mph - 0.00 in   Clear
11:35 PM 69.8 °F 64.4 °F 83% 30.07 in 10.0 mi SSW 6.9 mph - 0.00 in   Clear
11:55 PM 68.0 °F 64.4 °F 88% 30.06 in 10.0 mi SW 8.1 mph - 0.00 in   Clear